◎P/2008 U1 = 29N28W = 2A218Dの連結軌道と予報位置    [From YC 2601]

マクミラン新周期彗星  P/2008 U1 (McMillan)
    マクミラン(Robert S. McMillan, LPL)は,1.8-mスペースウォッチU望遠
鏡でおひつじ座を撮影した捜索フレーム上の次の位置に18等級の新彗星を発見し
た.発見当時,彗星には約5"のコマと西南西に15"の広がった尾が見られた.発見
翌日にレモン山の1.5-m反射でギッブズ(A. R. Gibbs)よって撮られた画像では,
西南西に伸びた6"x8"のコマがあって,さらに外に10"の淡いコマが取り囲んでい
たという.彗星には,9月20日に91-cmスペースウォッチ望遠鏡で撮られた捜索画
像上に発見前の観測が見つかっている(IAUC 8997).

    2008 UT             α     (2000)     δ             Mag.
    Oct. 19.19689   02h 03m 22s.46   +11゚ 44' 54".6      18.9

    OAA計算課では,2008年9月20日から11月28日までに行なわれた96個の観測か
ら決定した軌道から,2000年9月と10月にLONEOSサーベイで発見された18等級の
2夜の天体(29N28Wと2A218D)がこの彗星と同定できることを見つけた.これら
の観測は,その軌道から0o.47(儺= +1.19日)のずれがあった.計算課では,
2000年から2008年までに行われた103個の観測から次の連結軌道を計算した.平均
残差は±0".66(http://www.oaa.gr.jp/~oaacs/nk/nk1695.htm).彗星は,周期
が8年ほどの新周期彗星であった.なお,10月27日の観測が芸西の関勉氏(T. 
Seki)と上尾の門田健一氏(K. Kadota)から報告された.門田氏のCCD全光度は
18.2等.関氏からは11月25日の観測も報告されている.前回のT= 2000年12月8日.
2004年7月に木星に0.18 AUまで接近した.

   T = 2008 May 13.25731 TT     Epoch = 2008 May 14.0 TT
   ω = 310o.48359                  e =   0.3744070
   Ω =  36.41779    (2000.0)       a =   4.0358946 AU
   i =   4.41283                   n゚=   0.121561022
   q =   2.5248273 AU              P =   8.108 年


軌道と残差:

 208P/2008 U1 = 29N28W = 2A218D (McMillan)    [Temporary numbered]
Epoch 2008 May 14.0 TT = JDT 2454600.5  
T 2008 May 13.25731 TT                                  Nakano
q   2.5248273            (2000.0)            P               Q
n   0.12156102     Peri.  310.48359     +0.97264287     +0.22777038
a   4.0358946      Node    36.41779     -0.18298367     +0.87231928
e   0.3744070      Incl.    4.41283     -0.14311822     +0.43264273
P   8.11 (+/- 0.04 day)
From 103 observations 2000-2008, mean residual 0".66.
Residuals in seconds of arc 
2000/                     081025 B37  0.4+  0.3+    081104 850  0.0   0.2-  
000923 699  1.2+  0.5+    081025 B37  0.7+  0.5+    081107 204  0.5+  0.1+  
000923 699  1.6-  1.2-    081026 B37  1.2+  0.1+    081108 204  0.5+  0.0   
000923 699  0.0   0.4+    081026 204  0.3+  0.0     081108 691  0.3+  0.4+  
000923 699  0.1+  1.4-    081026 204  0.3+  0.0     081108 691  0.6-  0.2+  
001002 699  0.2+  0.7+    081026 673  0.4+  0.3+    081108 691  0.1+  0.3+  
001002 699 (1.8+  3.0+)   081026 704  0.8+  0.4+    081113 473  0.7+  0.1-  
001002 699  0.8-  0.6+    081026 673  0.2+  0.1+    081114 473  0.8-  0.1+  
001002 699  1.1+  0.5+    081026 704  0.3+  0.6+    081114 473  0.8-  0.0   
2008/                     081026 673  0.0   0.1+    081114 J47  0.1+  0.8-  
080920 691  0.4+  0.4-    081026 673  0.3-  0.0     081116 104  1.1+  1.3+  
080920 691  0.9-  1.0-    081026 704  0.6+  0.6+    081116 104  1.5+  0.6+  
080920 691  0.2-  0.5-    081026 704  0.1+  0.6-    081116 104  0.1+  0.9+  
081006 691 (2.2-  0.8-)   081026 704  1.0+  0.3+    081118 H45  0.6-  0.4-  
081006 691  1.5-  1.2-    081026 104  0.4-  0.5+    081118 H45  0.1+  0.5-  
081006 691  1.0-  0.4-    081026 104  0.3+  0.1-    081118 H45  0.1-  0.3+  
081010 691  1.6-  0.6-    081026 104  0.2-  0.0     081118 H45  0.1+  0.2+  
081010 691  1.1-  0.4-    081026 473  0.3+  0.2-    081118 H45  0.5+  0.6-  
081010 691  0.9-  0.5-    081027 372  0.2+  1.4+    081118 585 (4.0+  2.1-) 
081019 291  0.7-  0.0     081027 372  0.7-  0.1-    081118 585 (2.3+  2.1-) 
081019 291  0.8-  0.1+    081027 372  0.7-  0.5+    081118 585  0.5+  1.9-  
081019 291  1.1-  0.3+    081027 349  0.3-  0.2+    081118 585 (0.4-  2.3-) 
081020 G96  0.4+  0.3-    081027 349  0.2-  0.1+    081118 585 (1.2+  2.2-) 
081020 G96  0.5+  0.2-    081027 349  0.7-  0.3-    081119 850  1.2+  0.2-  
081020 G96  0.6+  0.1-    081030 703  0.5+  1.0-    081119 850  0.6+  0.1+  
081020 G96  0.3+  0.2-    081030 703  0.4-  0.4-    081119 850  0.1-  0.3-  
081021 691  1.2-  0.4-    081030 703  0.5-  0.4-    081119 900  0.1-  0.2-  
081021 691  1.4-  1.0-    081030 850  0.1+  0.2+    081119 900  0.7+  0.4-  
081021 691  1.3-  0.2-    081030 850  0.7-  0.1+    081119 130  1.9+  0.5+  
081025 215  0.1-  0.1+    081030 850  1.2-  0.4+    081119 130  1.6+  0.7+  
081025 215  0.4+  0.2-    081101 704  0.4+  0.6+    081125 372  0.5+  1.4-  
081025 215  0.4+  0.3-    081101 704  0.1-  1.2+    081125 372  0.7-  0.5+  
081025 B49  0.3-  0.0     081101 704  0.2-  1.5+    081127 E85  0.4-  0.5-  
081025 213  0.3+  0.8-    081101 704  1.1+  1.3+    081127 E85  0.0   0.9+  
081025 B49  0.8-  0.5+    081101 704  0.5-  1.3+    081127 E85  0.5-  0.2-  
081025 213  0.6+  0.6-    081102 B49 (0.1+  2.2-)   081128 J79  0.8+  0.1-  
081025 473  0.0   0.1-    081104 850  0.1-  0.3-                            
081025 473  0.0   0.1-    081104 850  0.4+  0.0                             
 
Date/        TT  R.A.(2000) Decl.     Delta   r     Daily motion  Mag.  Moon Age
              h    h  m       。  ,                      ,  / PA 。  m1      。
2008 Dec.  1 12  01 39.56  +10 49.3   2.035  2.840     2.2 / 286  18.6   97  .12
           2 12  01 39.41  +10 49.9   2.047  2.843     1.9 / 291  18.6   85  .19
           3 12  01 39.29  +10 50.6   2.059  2.846     1.7 / 299  18.6   73  .27
           4 12  01 39.19  +10 51.4   2.071  2.849     1.4 / 310  18.6   60  .36
           5 12  01 39.12  +10 52.3   2.084  2.851     1.3 / 324  18.6   48  .46
           6 12  01 39.06  +10 53.4   2.097  2.854     1.2 / 340  18.7   35  .56
           7 12  01 39.04  +10 54.5   2.110  2.857     1.3 / 356  18.7   22  .67
           8 12  01 39.03  +10 55.8   2.123  2.860     1.4 /  10  18.7    9  .76
           9 12  01 39.05  +10 57.2   2.136  2.863     1.6 /  21  18.7    7  .85
          10 12  01 39.09  +10 58.6   2.150  2.866     1.8 /  30  18.7   21  .93
          11 12  01 39.15  +11 00.2   2.163  2.869     2.1 /  36  18.8   36  .98
          12 12  01 39.23  +11 01.9   2.177  2.871     2.4 /  41  18.8   51 1.00
          13 12  01 39.34  +11 03.8   2.191  2.874     2.7 /  45  18.8   66  .99
          14 12  01 39.47  +11 05.7   2.205  2.877     3.0 /  48  18.8   81  .95
          15 12  01 39.62  +11 07.7   2.219  2.880     3.3 /  50  18.8   96  .89
          16 12  01 39.80  +11 09.8   2.233  2.883     3.6 /  52  18.8  110  .80
          17 12  01 39.99  +11 12.1   2.248  2.886     4.0 /  54  18.9  124  .70
          18 12  01 40.21  +11 14.4   2.262  2.889     4.3 /  55  18.9  138  .60
          19 12  01 40.45  +11 16.9   2.277  2.892     4.6 /  56  18.9  151  .49
          20 12  01 40.71  +11 19.4   2.292  2.895     4.9 /  57  18.9  163  .39
          21 12  01 40.99  +11 22.1   2.307  2.898     5.2 /  58  18.9  174  .30
          22 12  01 41.29  +11 24.8   2.322  2.900     5.5 /  59  19.0  171  .21
          23 12  01 41.61  +11 27.7   2.337  2.903     5.8 /  60  19.0  159  .14
          24 12  01 41.95  +11 30.6   2.352  2.906     6.2 /  60  19.0  147  .08
          25 12  01 42.32  +11 33.7   2.368  2.909     6.5 /  61  19.0  136  .04
          26 12  01 42.70  +11 36.8   2.383  2.912     6.8 /  61  19.0  124  .01
          27 12  01 43.10  +11 40.0   2.399  2.915     7.1 /  62  19.0  112  .00
          28 12  01 43.53  +11 43.4   2.415  2.918     7.4 /  62  19.1  101  .01
          29 12  01 43.97  +11 46.8   2.430  2.921     7.6 /  63  19.1   89  .03
          30 12  01 44.43  +11 50.3   2.446  2.924     7.9 /  63  19.1   77  .08
          31 12  01 44.91  +11 53.9   2.462  2.927     8.2 /  63  19.1   65  .14
2009 Jan.  1 12  01 45.42  +11 57.6   2.478  2.930     8.5 /  64  19.1   53  .21
NAKANO
         **** Don't distribute anyone except personal use only ****
                (C) Copyright 2008 OAA/ComputingSection
write mail from CFAD0::NAKANO on 2008-12-02 02:28:06(JST).
 





    P/2008 U1 (McMillan)

T 2008 May 13.27033 TT                                  Nakano

q   2.5299700            (2000.0)            P               Q

n   0.12172942     Peri.  310.64069     +0.97320778     +0.22531705

a   4.0321716      Node    36.40561     -0.18069496     +0.87269984

e   0.3725540      Incl.    4.42717     -0.14218282     +0.43315956

P   8.10 (+/- 1.14 days)

From 52 observations 2008 Sept. 20-Oct. 30.
                      

NAKANO

         **** Don't distribute anyone except personal use only ****

                (C) Copyright 2008 OAA/ComputingSection

write mail from CFAD0::NAKANO on 2008-11-05 05:02:23(JST).

 

◎P/2008 U1の軌道と予報位置



 芸西の関勉氏と上尾の門田健一氏から10月27日の観測が報告されました.関氏の

核光度は19.0等,門田氏のCCD全光度は18.2等でした.



    P/2008 U1 (McMillan)

T 2008 May 13.22379 TT                                  Nakano

q   2.5285900            (2000.0)            P               Q

n   0.12165595     Peri.  310.58788     +0.97301193     +0.22616742

a   4.0337948      Node    36.40825     -0.18147732     +0.87255900

e   0.3731486      Incl.    4.42397     -0.14252636     +0.43300011

P   8.10 (+/- 1.41 days)

From 36 observations 2008 Sept. 20-Oct. 27.

 

Date/        TT  R.A.(2000) Decl.     Delta   r     Daily motion  Mag.  Moon Age

              h    h  m       。  ,                      ,  / PA 。  m1      。

2008 Oct. 30 14  01 54.88  +11 20.6   1.770  2.758    10.8 / 259  18.1  155  .03

          31 14  01 54.16  +11 18.6   1.774  2.761    10.6 / 259  18.2  143  .06

     Nov.  1 14  01 53.45  +11 16.6   1.779  2.763    10.5 / 259  18.2  131  .12

           2 14  01 52.75  +11 14.6   1.784  2.766    10.3 / 259  18.2  119  .18

           3 14  01 52.06  +11 12.6   1.789  2.768    10.2 / 259  18.2  107  .26

           4 14  01 51.38  +11 10.8   1.795  2.771    10.0 / 259  18.2   95  .35

           5 14  01 50.71  +11 08.9   1.800  2.773     9.8 / 260  18.2   83  .44

           6 14  01 50.06  +11 07.2   1.807  2.776     9.6 / 260  18.2   70  .54

           7 14  01 49.42  +11 05.4   1.813  2.779     9.4 / 260  18.2   58  .64

           8 14  01 48.79  +11 03.8   1.819  2.781     9.1 / 260  18.2   45  .74

           9 14  01 48.18  +11 02.2   1.826  2.784     8.9 / 260  18.3   31  .82

          10 14  01 47.58  +11 00.7   1.833  2.786     8.6 / 260  18.3   18  .90

          11 14  01 47.01  +10 59.2   1.841  2.789     8.4 / 261  18.3    6  .96

          12 14  01 46.44  +10 57.9   1.848  2.791     8.1 / 261  18.3   13  .99

          13 14  01 45.90  +10 56.6   1.856  2.794     7.9 / 261  18.3   28 1.00

          14 14  01 45.37  +10 55.3   1.864  2.797     7.6 / 261  18.3   43  .97

          15 14  01 44.86  +10 54.2   1.873  2.799     7.3 / 262  18.3   58  .92

          16 14  01 44.37  +10 53.2   1.881  2.802     7.0 / 262  18.3   73  .84

          17 14  01 43.90  +10 52.2   1.890  2.805     6.7 / 263  18.4   88  .75

          18 14  01 43.45  +10 51.3   1.899  2.807     6.4 / 263  18.4  102  .64

          19 14  01 43.02  +10 50.6   1.909  2.810     6.1 / 264  18.4  116  .53

          20 14  01 42.61  +10 49.9   1.918  2.813     5.8 / 264  18.4  129  .43

          21 14  01 42.22  +10 49.3   1.928  2.815     5.5 / 265  18.4  142  .32

          22 14  01 41.85  +10 48.8   1.938  2.818     5.1 / 266  18.4  155  .23

          23 14  01 41.50  +10 48.5   1.948  2.821     4.8 / 267  18.5  167  .15

          24 14  01 41.18  +10 48.2   1.959  2.823     4.5 / 268  18.5  175  .09

          25 14  01 40.87  +10 48.0   1.969  2.826     4.1 / 269  18.5  166  .04

          26 14  01 40.59  +10 48.0   1.980  2.829     3.8 / 271  18.5  155  .01

          27 14  01 40.34  +10 48.0   1.991  2.832     3.5 / 273  18.5  143  .00

          28 14  01 40.10  +10 48.2   2.003  2.834     3.1 / 275  18.5  131  .01

          29 14  01 39.89  +10 48.4   2.014  2.837     2.8 / 278  18.5  119  .03

          30 14  01 39.70  +10 48.8   2.026  2.840     2.5 / 281  18.6  107  .07

     Dec.  1 14  01 39.53  +10 49.3   2.038  2.843     2.2 / 286  18.6   95  .13

NAKANO

         **** Don't distribute anyone except personal use only ****

                (C) Copyright 2008 OAA/ComputingSection

write mail from CFAD0::NAKANO on 2008-10-30 06:43:26(JST).

 



戻ります。